Casper, WY

12:47 AM MST on December 16, 2019 (GMT -0700)
Natrona County International

Weather History for KCPR - October, 2019

Change the Weather History Date:

Saturday, October 19, 2019

  Actual Average Record
Temperature  
Mean Temperature 41 °F 44 °F  
Max Temperature 53 °F 58 °F 79 °F (2003)
Min Temperature 29 °F 30 °F 17 °F (1949)
Degree Days  
Heating Degree Days 24 21  
Month to date heating degree days 395 341  
Since 1 July heating degree days 566 626  
Cooling Degree Days 0 0  
Month to date cooling degree days 0 0  
Year to date cooling degree days 441 422  
Moisture  
Dew Point 24 °F    
Average Humidity 50    
Maximum Humidity 70    
Minimum Humidity 30    
Precipitation  
Precipitation T in 0.03 in 0.55 in (1957)
Month to date precipitation 0.53 0.71  
Year to date precipitation 11.23 10.87  
Snow  
Snow 0.00 in 0.20 in - ()
Month to date snowfall 2.4 4.0  
Since 1 July snowfall 2.4 5.8  
Since 1 September snowfall 2.4 5.8  
Snow Depth 0.00 in    
Sea Level Pressure  
Sea Level Pressure 29.72 in    
Wind  
Wind Speed 17 mph (SW)    
Max Wind Speed 32 mph    
Max Gust Speed 43 mph    
Visibility 10 miles    
Events Rain    
T = Trace of Precipitation, MM = Missing Value Source: NWS Daily Summary

Daily Weather History Graph

Daily Weather History Graph

Search for Another Location

Airport or City:

Astronomy

Oct. 19, 2019 Rise Set
Actual Time 7:23 AM MDT 6:17 PM MDT
Civil Twilight 6:55 AM MDT 6:45 PM MDT
Nautical Twilight 6:22 AM MDT 7:18 PM MDT
Astronomical Twilight 5:49 AM MDT 7:51 PM MDT
Moon 10:22 PM MDT (10/19) 1:05 PM MDT (10/19)
Length of Visible Light 11h 50m
Length of Day
10h 53m
Waning Gibbous, 69% of the Moon is Illuminated
Oct 19
Waning Gibbous
Oct 21
Last Quarter
Oct 27
New
Nov 4
First Quarter
Nov 12
Full

Hourly Weather History & Observations

Time (MDT) Temp. Windchill Dew Point Humidity Pressure Visibility Wind Dir Wind Speed Gust Speed Precip Events Conditions
12:53 AM 32.0 °F 22.1 °F 21.0 °F 64% 29.86 in 10.0 mi SW 13.8 mph - N/A   Clear
1:53 AM 33.1 °F 25.5 °F 21.0 °F 61% 29.83 in 10.0 mi WSW 9.2 mph - N/A   Clear
2:53 AM 34.0 °F 25.5 °F 21.0 °F 59% 29.82 in 10.0 mi SW 11.5 mph - N/A   Clear
3:53 AM 33.1 °F 25.5 °F 23.0 °F 66% 29.82 in 10.0 mi SSW 9.2 mph - N/A   Clear
4:53 AM 34.0 °F 25.0 °F 23.0 °F 64% 29.83 in 10.0 mi SW 12.7 mph - N/A   Clear
5:53 AM 32.0 °F 22.5 °F 21.9 °F 66% 29.85 in 10.0 mi SW 12.7 mph - N/A   Clear
6:53 AM 33.1 °F 28.7 °F 21.9 °F 64% 29.87 in 10.0 mi WSW 4.6 mph - N/A   Clear
7:53 AM 30.9 °F 23.5 °F 21.9 °F 69% 29.89 in 10.0 mi West 8.1 mph - N/A   Scattered Clouds
8:53 AM 37.0 °F 34.5 °F 25.0 °F 62% 29.88 in 10.0 mi SSW 3.5 mph - N/A   Overcast
9:53 AM 41.0 °F 35.8 °F 27.0 °F 57% 29.86 in 10.0 mi SW 8.1 mph - N/A   Clear
10:53 AM 46.0 °F 39.0 °F 27.0 °F 47% 29.81 in 10.0 mi West 17.3 mph 24.2 mph N/A   Mostly Cloudy
11:53 AM 48.9 °F - 25.0 °F 39% 29.77 in 10.0 mi WSW 20.7 mph 29.9 mph N/A   Partly Cloudy
12:53 PM 52.0 °F - 21.0 °F 30% 29.72 in 10.0 mi WSW 25.3 mph 35.7 mph 0.00 in Rain Light Rain
1:53 PM 53.1 °F - 23.0 °F 31% 29.68 in 10.0 mi WSW 29.9 mph 39.1 mph 0.00 in   Scattered Clouds
2:53 PM 50.0 °F - 21.9 °F 33% 29.68 in 10.0 mi WSW 24.2 mph 35.7 mph N/A   Partly Cloudy
3:53 PM 50.0 °F - 21.0 °F 32% 29.65 in 10.0 mi SW 21.9 mph 32.2 mph N/A   Partly Cloudy
4:53 PM 52.0 °F - 21.0 °F 30% 29.61 in 10.0 mi WSW 13.8 mph 29.9 mph N/A   Mostly Cloudy
5:53 PM 50.0 °F - 21.0 °F 32% 29.61 in 10.0 mi WSW 13.8 mph 27.6 mph N/A   Overcast
6:53 PM 48.9 °F - 25.0 °F 39% 29.61 in 10.0 mi WSW 28.8 mph 39.1 mph 0.00 in Rain Light Rain
8:53 PM 44.1 °F 35.9 °F 30.9 °F 60% 29.59 in 10.0 mi SSW 19.6 mph 32.2 mph N/A   Overcast
9:53 PM 42.1 °F 32.1 °F 30.9 °F 65% 29.57 in 10.0 mi SSW 25.3 mph 32.2 mph 0.00 in   Overcast
10:53 PM 39.0 °F 29.0 °F 30.9 °F 73% 29.53 in 10.0 mi SSW 20.7 mph 28.8 mph N/A   Overcast
11:53 PM 39.9 °F 29.0 °F 30.0 °F 68% 29.47 in 10.0 mi SSW 26.5 mph 39.1 mph N/A   Overcast